Weather History for Lanai City, HI

Change the Weather History Date:

Friday, July 5, 2013

  Actual Average Record
Temperature  
Mean Temperature 73 °F -  
Max Temperature 82 °F 81 °F 87 °F (2001)
Min Temperature 64 °F 65 °F 60 °F (1955)
Cooling Degree Days 8    
Growing Degree Days 23 (Base 50)    
Moisture  
Dew Point 65 °F    
Average Humidity 74    
Maximum Humidity 93    
Minimum Humidity 54    
Precipitation  
Precipitation 0.00 in - - ()
Sea Level Pressure  
Sea Level Pressure 30.03 in    
Wind  
Wind Speed 6 mph (NE)    
Max Wind Speed 14 mph    
Max Gust Speed -    
Visibility 10 miles    
Events      
Averages and records for this station are not official NWS values.
T = Trace of Precipitation, MM = Missing Value Source: NWS Daily Summary

Daily Weather History Graph

Daily Weather History Graph

Search for Another Location

Airport:

Trip Planner

Search our weather history database for the weather conditions in past years. The results will help you decide how hot, cold, wet, or windy it might be!

Date:

Astronomy

Jul. 05, 2013 Rise Set
Actual Time 5:51 AM HST 7:12 PM HST
Civil Twilight 5:27 AM HST 7:37 PM HST
Nautical Twilight 4:58 AM HST 8:06 PM HST
Astronomical Twilight 4:27 AM HST 8:36 PM HST
Moon 3:53 AM HST (7/5) 5:22 PM HST (7/5)
Length of Visible Light 14h 10m
Length of Day
13h 21m
Waning Crescent, 5% of the Moon is Illuminated
Jul 5
Waning Crescent
Jul 7
New
Jul 15
First Quarter
Jul 22
Full
Jul 29
Last Quarter

Hourly Weather History & Observations

Time (HST) Temp. Heat Index Dew Point Humidity Pressure Visibility Wind Dir Wind Speed Gust Speed Precip Events Conditions
12:56 AM 68.0 °F - 61.9 °F 81% 30.04 in 10.0 mi East 5.8 mph - N/A   Clear
1:56 AM 66.9 °F - 63.0 °F 87% 30.01 in 10.0 mi ENE 6.9 mph - N/A   Clear
2:56 AM 66.9 °F - 63.0 °F 87% 30.01 in 10.0 mi ENE 5.8 mph - N/A   Clear
3:56 AM 65.8 °F - 63.0 °F 90% 30.00 in - NE 6.9 mph - N/A   Clear
4:56 AM 64.9 °F - 61.9 °F 90% 30.01 in 10.0 mi NE 5.8 mph - N/A   Clear
5:56 AM 64.9 °F - 63.0 °F 93% 30.01 in 10.0 mi ENE 4.6 mph - N/A   Clear
6:56 AM 68.9 °F - 65.8 °F 90% 30.03 in 10.0 mi ENE 3.5 mph - N/A   Clear
7:56 AM 74.8 °F - 65.8 °F 73% 30.04 in 10.0 mi Calm Calm - N/A   Clear
8:56 AM 81.0 °F 83.3 °F 66.9 °F 62% 30.04 in 10.0 mi WNW 5.8 mph - N/A   Mostly Cloudy
9:03 AM 78.8 °F - 66.2 °F 65% 30.10 in 10.0 mi West 5.8 mph - N/A   Scattered Clouds
9:56 AM 79.0 °F - 66.9 °F 66% 30.04 in 10.0 mi Variable 5.8 mph - N/A   Clear
10:56 AM 78.8 °F - 66.2 °F 65% 30.10 in 10.0 mi West 9.2 mph - N/A   Mostly Cloudy
11:03 AM 78.8 °F - 66.2 °F 65% 30.10 in 10.0 mi Variable 5.8 mph - N/A   Mostly Cloudy
11:56 AM 77.9 °F - 65.8 °F 66% 30.03 in 10.0 mi Variable 5.8 mph - N/A   Mostly Cloudy
12:56 PM 77.9 °F - 64.9 °F 64% 30.02 in 10.0 mi WSW 9.2 mph - N/A   Overcast
1:41 PM 80.6 °F 82.3 °F 64.4 °F 58% 30.07 in 10.0 mi Variable 6.9 mph - N/A   Overcast
1:56 PM 82.4 °F 83.9 °F 64.4 °F 54% 30.06 in 10.0 mi WSW 8.1 mph - N/A   Mostly Cloudy
2:56 PM 81.9 °F 83.9 °F 65.8 °F 58% 29.99 in 10.0 mi West 6.9 mph - N/A   Mostly Cloudy
3:06 PM 80.6 °F 82.7 °F 66.2 °F 61% 30.05 in 10.0 mi NW 5.8 mph - N/A   Overcast
3:56 PM 77.0 °F - 65.8 °F 68% 29.98 in 10.0 mi Variable 6.9 mph - N/A   Overcast
4:16 PM 78.8 °F - 66.2 °F 65% 30.04 in 10.0 mi Variable 3.5 mph - N/A   Mostly Cloudy
4:24 PM 78.8 °F - 66.2 °F 65% 30.03 in 10.0 mi SSE 5.8 mph - N/A   Mostly Cloudy
4:56 PM 77.0 °F - 65.8 °F 68% 29.98 in 10.0 mi SE 6.9 mph - N/A   Overcast
5:56 PM 75.9 °F - 64.9 °F 69% 29.98 in 10.0 mi NNE 8.1 mph - N/A   Overcast
6:21 PM 75.2 °F - 64.4 °F 69% 30.04 in 10.0 mi NNE 8.1 mph - N/A   Scattered Clouds
6:34 PM 75.2 °F - 64.4 °F 69% 30.05 in 10.0 mi Calm Calm - N/A   Mostly Cloudy
6:56 PM 74.8 °F - 65.8 °F 73% 30.00 in 10.0 mi Variable 3.5 mph - N/A   Overcast
7:23 PM 71.6 °F - 64.4 °F 78% 30.06 in 10.0 mi NE 6.9 mph - N/A   Scattered Clouds
7:56 PM 70.9 °F - 65.8 °F 84% 30.01 in 10.0 mi NE 8.1 mph - N/A   Clear
8:56 PM 70.9 °F - 66.9 °F 87% 30.01 in 10.0 mi NNE 13.8 mph - N/A   Partly Cloudy
9:56 PM 70.9 °F - 66.9 °F 87% 30.03 in - NNE 10.4 mph - N/A   Clear
10:56 PM 71.6 °F - 66.2 °F 83% 30.10 in - NE 9.2 mph - N/A   Clear
11:56 PM 68.9 °F - 64.9 °F 87% 30.04 in 10.0 mi ENE 6.9 mph - N/A   Clear